Lid_Strength_Index
4 3 3 3 3 2 2 2 1 1 1 1 1 0 0 -0 -0 0 0 0 0 0 0 -0 -1 -1 -1 -1 -1 -1 -2 -1 -1
4 4 3 3 2 2 2 2 1 1 1 1 1 0 0 0 0 -0 0 -0 -0 -0 -1 -0 -1 -1 -0 0 -1 -1 -1 -1 -1
4 4 3 3 2 2 2 1 1 1 1 1 1 0 0 1 0 -0 -0 -0 -0 -0 -0 -1 -1 -0 0 -0 -1 -1 -1 -1 -1
4 4 3 3 2 2 2 1 1 1 1 1 1 1 0 0 0 0 0 0 0 -0 -0 0 0 0 -0 -1 -1 -1 -1 -1 -1
3 3 3 3 3 2 2 2 1 2 1 1 1 1 0 1 0 0 0 1 -0 -0 0 1 1 0 -1 -1 -1 -1 -1 -1 -1
4 4 3 3 3 3 2 2 2 2 1 1 1 1 1 1 1 1 1 1 1 1 2 2 1 -1 -1 -1 -1 -1 -1 -1 1
4 4 3 3 3 3 2 2 2 2 2 1 1 1 1 1 1 1 1 1 1 2 2 1 -0 -0 -1 -1 0 0 0 1 1
4 4 4 3 3 3 3 2 2 2 2 1 1 1 1 1 1 1 1 1 2 2 1 0 0 -1 -1 -0 1 2 1 1 1
4 4 4 3 3 3 3 3 2 2 2 1 1 1 1 1 1 1 1 1 2 1 1 1 0 -0 -0 0 2 2 2 1 1
5 4 3 3 3 3 3 2 2 2 2 1 1 2 1 1 1 1 1 1 1 1 2 2 1 0 0 0 0 2 2 3 2
5 4 3 3 3 2 2 2 2 1 1 1 1 2 1 1 2 1 1 1 1 1 2 2 2 1 1 1 1 2 2 2 1
4 3 3 3 2 2 2 2 2 2 2 2 2 2 2 1 1 1 1 1 2 3 4 3 3 2 2 1 2 4 2 1 1
4 3 2 2 2 2 2 2 2 2 3 3 3 2 1 1 1 1 1 1 3 4 3 3 4 3 2 3 3 5 5 2 3
3 3 3 2 2 2 2 2 2 3 3 3 2 1 2 2 2 1 2 2 4 4 3 3 3 3 3 3 3 4 6 5 2
4 4 3 3 3 3 3 2 2 3 3 3 1 2 2 3 3 2 2 3 3 3 2 3 2 3 3 3 2 3 6 6 6
4 4 3 3 3 3 3 2 2 4 4 2 3 2 3 2 2 2 2 3 3 3 2 4 4 4 4 3 2 1 5 5 5
4 4 4 3 3 4 4 2 3 2 2 2 2 2 2 1 3 3 3 3 3 4 4 4 5 4 4 4 2 2 1 1 2
4 4 3 3 4 4 4 4 3 2 3 2 2 2 2 3 4 4 4 3 3 4 3 4 4 3 3 3 2 2 4 4 1
3 3 3 3 3 4 4 4 3 3 3 2 2 2 3 3 3 3 3 4 4 7 7 7 7 7 5 2 5 7 9 9 8
4 3 3 3 3 3 3 3 3 3 3 1 1 2 2 3 3 3 4 5 5 5 5 8 9 9 9 8 8 10 11 9 8